Temperature
26 27 27 27 27 27 27 27 27 27 27 26 26 26 26 25 24 24 23 23 22 21 20 19 18 18 17 17 17 17 16 16 16 15 15 15 15 15 14 14 14 14 13 13
27 27 27 27 27 27 27 27 27 27 26 26 26 26 26 25 25 24 23 22 22 21 20 19 18 17 17 17 17 16 16 16 16 15 15 15 14 14 14 14 14 13 13 13
27 27 27 27 27 26 27 27 27 26 26 26 26 26 26 26 24 23 23 22 21 21 20 19 18 17 17 16 16 16 16 16 15 15 15 14 14 14 14 14 13 13 13 13
27 27 27 27 27 27 27 27 27 26 26 27 26 26 26 26 25 24 23 22 21 20 20 19 18 18 17 16 16 16 16 15 15 15 14 14 14 14 14 13 13 13 13 12
27 27 26 26 26 26 27 27 26 26 26 26 27 26 27 26 25 24 24 22 21 20 20 19 18 18 17 16 16 15 15 15 14 14 14 14 14 14 13 13 13 13 12 12
27 27 27 26 27 26 26 26 26 26 27 25 26 26 26 26 24 24 23 22 21 20 19 19 18 17 17 16 16 15 15 14 14 14 14 14 13 13 13 13 13 12 12 12
26 27 27 26 26 26 26 26 25 25 25 26 26 25 25 24 24 23 22 21 20 19 19 18 17 17 16 16 15 15 14 14 14 14 13 13 13 13 13 12 12 12 12 12
25 26 26 26 26 25 26 26 25 24 25 26 26 25 25 24 23 22 21 20 19 19 18 18 17 16 16 15 15 15 14 14 14 13 13 13 13 13 12 12 12 12 12 12
24 24 26 26 26 26 26 26 26 25 25 25 26 25 24 23 22 22 21 20 19 18 18 17 16 16 15 15 15 14 14 14 13 13 13 13 12 12 12 12 12 12 11 11
24 23 25 26 26 26 26 26 25 24 23 24 25 25 24 22 22 21 21 19 19 18 17 16 16 15 15 14 14 14 14 13 13 13 13 12 12 12 12 12 12 11 11 11
23 22 24 25 25 24 24 25 24 24 24 23 23 24 23 22 21 20 20 19 18 17 16 16 15 15 14 14 14 13 13 13 13 13 13 12 12 12 12 12 12 11 11 11
22 22 23 24 25 25 24 24 24 23 23 23 23 23 22 22 21 20 19 17 17 16 16 15 15 14 14 14 13 13 13 13 13 13 12 12 12 12 12 11 11 11 11 11
21 21 21 23 24 24 24 24 24 23 23 23 23 23 21 21 20 19 18 17 16 15 15 14 14 14 14 13 13 13 13 13 13 12 12 12 12 11 11 11 11 11 11 11
20 20 21 21 22 22 22 23 23 23 22 22 23 22 22 20 19 18 17 16 16 15 14 14 14 13 13 13 13 13 12 12 12 12 12 12 12 11 11 11 11 11 11 11
19 20 21 21 22 22 22 22 22 22 22 22 22 22 21 20 19 17 16 16 15 15 14 14 13 13 13 13 13 12 12 12 12 12 12 12 11 11 11 11 11 11 11 10
19 19 20 21 22 22 21 21 21 21 21 21 21 21 20 19 18 17 16 15 15 15 14 13 13 13 13 13 12 12 12 12 12 12 12 11 11 11 11 11 11 11 10 10
19 18 19 20 21 21 20 21 21 20 20 20 20 20 19 18 17 16 15 15 15 14 14 13 13 13 12 12 12 12 12 12 12 12 11 11 11 11 11 11 11 10 10 10
17 18 19 20 20 19 20 20 20 20 19 19 19 18 18 17 16 16 15 15 14 13 13 13 13 12 12 12 12 12 12 12 12 12 11 11 11 11 11 11 11 10 10 10
17 17 18 19 20 20 20 20 19 19 19 18 18 17 17 16 16 16 15 14 13 13 12 12 12 12 12 12 12 12 12 12 12 12 11 11 11 11 11 11 11 10 10 10
18 17 18 19 18 18 19 19 19 19 18 17 17 16 16 16 17 16 14 13 13 12 12 12 12 12 12 12 11 12 12 12 12 11 11 11 11 11 11 11 11 11 10 10
18 18 18 18 18 19 18 18 18 18 17 16 16 15 15 15 15 14 13 12 12 12 12 12 12 12 12 12 11 11 11 11 11 11 11 11 11 11 11 11 11 11 10 10
18 18 18 18 18 18 17 18 17 16 15 15 15 15 14 14 13 13 12 12 12 12 12 12 12 12 11 11 11 11 11 11 11 11 11 11 11 11 11 11 11 11 11 11
17 17 17 17 17 17 16 16 15 14 14 14 14 14 13 13 13 12 12 12 12 12 12 12 11 11 11 11 11 11 11 11 11 11 11 11 11 11 11 11 11 11 11 11
17 16 16 16 17 16 15 15 14 14 14 14 13 13 13 13 12 12 12 12 11 11 11 11 11 11 11 11 11 11 11 11 11 11 11 11 11 11 11 11 11 11 11 12
16 16 16 16 16 16 15 15 14 13 13 13 13 13 13 12 12 12 11 11 11 11 11 11 11 11 11 11 11 11 11 11 11 11 11 11 11 11 11 11 11 11 11 11
16 16 15 16 15 15 14 14 13 13 13 13 12 12 12 12 12 12 11 11 11 11 11 11 11 11 11 11 11 11 11 11 11 11 11 12 12 12 12 12 11 12 11 11
Wind_Speed
3 5 4 2 3 4 4 6 4 3 2 5 6 5 4 4 5 5 5 5 6 6 5 5 6 6 7 7 7 7 7 7 5 5 4 4 3 3 2 2 2 3 3 3
5 4 3 3 4 6 6 6 4 3 2 5 5 5 4 3 4 4 5 5 5 5 5 5 6 6 7 7 7 8 8 7 7 5 4 3 2 2 2 1 2 3 3 3
3 2 1 3 4 5 6 6 5 5 4 6 7 6 3 3 2 3 4 4 5 5 5 6 6 6 7 7 8 7 7 7 6 6 4 4 3 3 3 2 2 2 3 3
2 1 2 4 3 5 5 4 6 7 8 5 6 6 3 2 1 1 2 3 4 5 5 5 6 6 7 7 6 7 7 6 6 6 5 5 4 3 2 2 2 2 3 3
1 2 2 3 4 5 5 5 7 8 9 8 7 8 2 2 1 2 1 2 3 3 4 5 5 6 6 6 6 6 6 6 6 6 6 5 4 2 2 2 2 3 2 3
3 2 3 4 4 3 3 5 7 8 8 8 5 7 4 1 3 3 3 2 1 1 2 3 4 4 5 5 5 6 6 6 6 6 5 5 4 3 2 2 2 3 2 3
3 3 1 3 4 2 5 6 6 6 6 5 1 6 2 4 4 3 3 2 2 1 1 2 4 4 4 5 5 5 6 6 5 5 5 5 4 4 4 3 3 3 3 3
4 2 1 3 5 6 6 7 7 7 7 7 4 5 2 4 4 4 4 4 4 2 1 1 3 4 4 5 5 5 6 5 5 5 5 5 5 4 3 3 3 3 3 3
5 4 3 4 5 7 6 6 8 9 11 10 6 4 2 3 4 6 6 5 5 4 3 2 2 3 4 4 5 5 5 5 5 5 4 4 4 3 3 3 4 3 3 3
6 7 5 4 5 4 6 6 6 7 8 8 7 6 2 1 4 6 6 6 5 4 4 3 2 2 2 2 3 4 4 4 4 4 3 3 3 4 3 3 3 3 3 3
6 6 6 5 5 6 5 5 6 7 7 8 8 3 4 3 4 5 6 6 5 4 3 3 2 2 2 1 2 3 3 3 3 3 3 3 3 3 3 3 3 2 3 3
5 6 8 7 4 4 5 6 6 7 8 8 9 3 6 6 5 4 5 5 5 4 3 3 2 2 2 1 1 2 2 2 2 2 2 2 2 2 2 2 2 2 3 3
6 5 7 5 3 2 4 6 7 8 9 9 10 4 4 5 5 5 4 5 5 4 4 4 3 2 1 0 1 1 2 2 2 2 2 2 2 1 1 1 2 2 2 2
5 5 8 9 9 9 10 10 10 10 9 10 10 8 4 4 4 5 4 4 4 4 3 3 3 2 1 1 1 1 1 2 2 2 2 3 2 1 1 1 2 2 2 2
5 7 8 10 11 11 11 11 11 10 11 11 11 9 6 4 3 3 3 4 4 4 3 3 3 2 2 1 1 1 1 2 2 2 3 2 2 2 2 1 1 2 2 2
4 6 8 10 9 9 10 10 9 9 9 10 10 8 4 4 3 2 3 4 4 4 4 3 3 3 2 1 1 2 2 2 2 3 3 3 2 2 2 2 2 2 2 3
4 5 7 8 7 8 6 4 5 5 5 6 7 6 3 4 4 3 3 3 4 4 4 4 4 3 3 2 2 2 2 2 3 3 4 3 2 2 2 2 2 2 2 2
6 7 5 7 7 6 1 4 5 5 5 5 4 3 3 5 5 3 2 4 4 5 4 4 4 3 3 2 2 2 2 3 3 3 3 3 3 3 3 3 2 2 2 2
7 6 5 5 7 6 2 3 5 7 5 5 4 4 4 6 5 2 4 5 5 5 4 4 4 3 3 2 2 2 3 3 3 2 3 3 3 3 3 3 2 2 2 2
4 6 7 7 8 6 4 7 8 7 4 6 6 5 6 6 7 5 6 7 7 6 5 4 4 3 3 2 2 3 3 3 3 2 2 2 2 3 3 2 2 2 2 2
4 5 7 9 8 5 6 8 7 5 5 7 7 6 7 7 7 7 7 7 6 6 5 5 4 3 3 2 2 3 3 3 3 2 2 2 3 3 2 2 2 2 2 2
6 6 5 6 7 3 8 7 6 7 8 8 8 7 7 7 7 6 6 6 6 6 5 5 4 3 2 2 3 3 3 3 3 2 2 2 2 2 2 2 2 2 2 3
4 5 5 5 5 6 7 7 7 8 8 8 7 8 7 7 7 7 6 6 6 6 5 4 4 3 3 2 3 3 3 3 3 3 3 3 3 2 3 3 3 3 3 3
5 5 6 7 7 7 7 7 7 8 8 8 8 7 7 7 7 7 6 6 6 5 4 4 3 3 3 2 3 3 3 3 3 3 3 3 3 3 3 3 3 3 2 2
8 7 8 10 9 9 7 8 9 9 9 8 7 7 6 6 7 7 6 6 5 5 4 4 3 4 3 3 3 3 3 3 3 3 3 3 3 2 3 3 2 2 2 2
7 8 9 9 8 9 10 10 10 10 8 8 8 7 7 6 6 6 6 5 5 5 4 4 4 4 4 3 3 3 3 3 3 3 3 2 2 2 3 2 1 0 2 0
Wind_Direction
206 229 231 263 274 294 275 265 264 271 259 256 259 264 260 242 228 224 216 210 207 206 200 193 190 191 187 183 181 183 182 174 177 183 190 192 196 202 203 196 197 222 234 240
216 231 276 274 262 255 254 261 269 277 251 260 264 269 260 235 221 218 212 209 205 206 196 192 191 190 191 188 187 184 184 181 184 183 190 193 193 206 207 212 194 224 233 245
273 1 324 252 247 251 254 273 287 285 272 247 253 240 228 186 189 204 209 212 206 206 201 195 193 192 192 191 190 186 186 185 184 179 176 168 175 192 199 201 205 225 235 239
276 309 257 258 272 278 271 293 282 268 259 255 255 270 218 174 184 191 208 206 208 204 202 197 192 192 194 191 185 183 182 180 177 180 181 186 195 204 208 221 224 230 238 244
268 310 290 291 313 288 297 291 270 261 262 264 250 269 233 179 273 304 283 240 218 209 202 199 193 190 186 181 177 177 176 175 176 180 182 194 204 206 202 203 204 241 238 242
268 263 296 309 312 281 276 264 255 243 248 253 259 267 275 347 326 325 324 322 268 211 189 183 178 172 165 169 174 173 172 175 177 182 185 192 195 202 207 210 210 228 234 240
248 212 215 295 288 243 263 279 269 252 245 260 232 261 296 33 13 350 345 5 42 67 124 158 167 165 164 167 172 171 171 174 180 186 191 194 198 206 210 224 222 242 250 252
295 260 14 328 311 306 281 282 287 290 287 290 254 261 81 54 27 29 35 42 55 46 82 147 162 166 173 165 165 170 174 176 182 189 196 201 205 216 218 229 251 251 264 270
330 309 315 302 297 289 280 281 298 287 280 275 263 252 158 52 21 28 36 41 42 38 43 72 130 155 173 171 172 178 175 177 185 190 196 200 209 229 235 232 240 253 264 269
321 295 290 290 266 252 287 295 286 283 289 284 276 267 277 20 7 14 16 16 19 27 35 54 81 114 138 162 167 174 178 189 189 187 192 198 214 228 233 240 247 255 262 274
315 287 284 275 280 299 280 270 279 282 283 287 289 302 35 48 42 12 5 13 16 17 29 48 76 95 97 100 156 170 177 184 190 191 193 208 221 224 229 238 246 254 269 267
329 297 288 284 289 283 272 284 286 284 283 277 284 300 71 57 43 25 18 19 27 28 29 42 62 84 96 122 159 185 175 180 186 180 189 213 225 221 228 243 269 276 274 275
328 295 289 273 218 223 281 291 287 284 281 275 275 276 94 49 34 30 32 26 30 37 37 39 54 64 66 140 170 191 194 187 183 182 194 203 213 217 232 260 278 286 286 290
301 277 281 292 302 307 295 292 289 284 277 277 278 288 305 2 15 19 23 23 24 31 30 27 34 31 356 289 227 212 207 202 188 197 211 212 213 221 238 254 269 273 287 285
315 279 281 285 287 284 287 286 283 277 280 283 290 295 323 348 342 351 5 8 10 15 8 4 358 359 343 322 272 227 212 226 208 212 222 219 217 230 245 248 254 268 281 284
317 291 290 281 278 281 285 287 283 280 280 281 284 289 340 339 339 339 355 359 353 351 346 341 336 337 332 321 296 275 235 228 222 221 228 220 220 229 233 230 237 257 279 293
289 288 290 287 299 284 274 299 300 299 307 298 294 312 343 334 321 316 329 335 336 335 329 326 323 316 317 309 286 275 268 234 223 230 233 224 214 222 229 229 247 267 281 291
268 281 280 289 292 277 23 26 339 315 324 329 324 347 348 336 319 306 328 337 337 333 328 321 321 315 308 299 275 283 274 244 224 234 240 227 218 224 226 228 242 260 267 275
237 264 281 282 290 288 280 350 330 308 311 1 357 353 346 341 321 308 360 345 332 325 318 308 307 304 296 284 269 273 270 248 229 231 246 235 222 225 228 236 242 248 257 271
220 247 266 281 289 292 357 5 336 297 274 34 360 341 333 316 308 320 334 326 322 320 314 306 302 300 290 274 261 260 260 247 237 242 250 244 227 228 237 245 250 255 260 273
268 258 264 277 277 282 9 352 329 298 350 349 330 322 315 318 322 316 309 307 306 302 300 298 295 290 285 273 261 265 262 253 246 247 250 237 223 231 240 244 246 254 263 277
295 288 278 278 273 287 12 346 340 332 328 321 320 319 318 320 316 308 301 302 303 303 300 298 294 284 267 249 248 260 266 262 245 235 238 233 229 239 236 236 246 249 255 255
281 305 304 293 294 328 329 326 327 323 319 319 318 317 313 309 307 306 301 299 299 298 296 293 289 283 270 258 253 256 265 257 235 224 225 231 231 236 239 238 243 243 239 263
277 282 275 277 281 301 309 317 321 321 321 319 311 307 303 301 300 299 297 294 295 297 293 288 284 281 278 275 265 257 257 243 223 222 225 226 229 232 231 244 246 253 262 273
286 282 276 274 287 299 298 315 319 319 317 314 310 304 299 296 292 292 293 292 294 295 295 295 292 286 281 284 277 265 253 225 215 221 223 228 230 232 240 246 266 270 297 318
270 273 278 287 298 296 297 307 311 310 311 311 308 304 301 292 285 285 285 287 286 285 282 280 279 280 277 278 275 262 239 217 213 221 231 236 233 228 242 242 246 192 249 195
Height
1505 1502 1498 1495 1495 1495 1495 1496 1496 1494 1494 1495 1495 1495 1495 1496 1498 1499 1501 1502 1505 1507 1509 1511 1512 1513 1515 1515 1516 1517 1519 1520 1521 1522 1523 1524 1525 1525 1526 1526 1526 1526 1526 1526
1501 1498 1496 1496 1496 1496 1495 1495 1494 1493 1493 1495 1494 1493 1492 1493 1495 1498 1499 1501 1503 1505 1507 1509 1510 1511 1512 1513 1514 1515 1516 1518 1519 1520 1521 1522 1522 1523 1524 1524 1524 1524 1523 1523
1497 1495 1496 1496 1495 1496 1493 1493 1492 1493 1492 1491 1492 1493 1489 1490 1494 1496 1498 1500 1501 1503 1505 1506 1508 1509 1510 1511 1512 1513 1514 1515 1516 1518 1519 1519 1520 1521 1522 1522 1522 1522 1521 1520
1495 1495 1496 1495 1494 1493 1494 1489 1491 1492 1492 1489 1491 1494 1487 1487 1491 1493 1496 1498 1499 1501 1503 1504 1505 1507 1508 1509 1510 1510 1512 1513 1514 1515 1516 1517 1518 1518 1519 1520 1520 1519 1518 1518
1495 1495 1496 1496 1494 1493 1491 1490 1490 1489 1489 1489 1487 1491 1484 1485 1490 1491 1494 1496 1498 1500 1501 1502 1504 1505 1506 1507 1508 1508 1509 1510 1511 1512 1513 1515 1515 1516 1517 1517 1517 1516 1516 1516
1495 1496 1496 1495 1494 1493 1492 1490 1488 1486 1485 1495 1488 1492 1489 1485 1489 1490 1492 1495 1497 1498 1499 1501 1502 1503 1504 1505 1506 1507 1507 1508 1509 1510 1511 1512 1513 1514 1514 1514 1514 1514 1514 1513
1496 1493 1494 1495 1493 1492 1491 1493 1498 1497 1494 1491 1484 1489 1489 1487 1489 1491 1493 1494 1496 1497 1498 1499 1500 1501 1502 1502 1504 1505 1505 1506 1507 1508 1509 1509 1510 1511 1512 1512 1512 1512 1512 1511
1501 1499 1494 1495 1495 1495 1492 1492 1503 1507 1499 1487 1483 1487 1486 1489 1491 1493 1494 1495 1496 1497 1498 1499 1500 1500 1500 1501 1502 1503 1504 1504 1505 1506 1507 1507 1508 1509 1510 1509 1509 1509 1509 1508
1505 1503 1494 1495 1494 1493 1491 1489 1486 1492 1489 1491 1484 1482 1485 1489 1490 1492 1493 1495 1496 1497 1498 1499 1499 1499 1500 1500 1501 1502 1502 1503 1504 1505 1505 1505 1506 1507 1507 1507 1507 1507 1506 1506
1507 1508 1496 1494 1493 1492 1490 1489 1491 1494 1502 1500 1488 1486 1486 1490 1491 1492 1494 1495 1496 1497 1498 1499 1499 1499 1500 1500 1501 1501 1501 1502 1503 1503 1503 1504 1505 1505 1505 1505 1505 1504 1503 1502
1508 1510 1500 1494 1494 1494 1494 1493 1493 1492 1492 1500 1499 1492 1485 1489 1492 1495 1496 1497 1498 1498 1498 1499 1499 1499 1499 1500 1500 1500 1501 1501 1502 1502 1502 1503 1503 1503 1503 1503 1503 1502 1501 1500
1511 1509 1504 1496 1492 1492 1492 1492 1494 1502 1498 1494 1495 1494 1489 1491 1494 1497 1498 1499 1499 1499 1499 1499 1499 1499 1499 1499 1500 1500 1500 1500 1501 1501 1501 1501 1501 1501 1501 1501 1500 1499 1499 1498
1515 1514 1511 1499 1498 1494 1494 1493 1493 1493 1495 1495 1496 1495 1490 1492 1495 1498 1499 1500 1500 1500 1500 1499 1499 1499 1499 1499 1499 1499 1499 1499 1500 1500 1500 1500 1500 1500 1499 1499 1498 1497 1497 1496
1519 1514 1514 1514 1505 1499 1498 1496 1494 1494 1495 1493 1490 1490 1489 1492 1496 1499 1500 1501 1501 1500 1500 1500 1500 1499 1499 1499 1499 1499 1499 1498 1498 1498 1499 1499 1498 1498 1497 1497 1496 1495 1495 1494
1519 1513 1508 1505 1500 1498 1497 1496 1494 1494 1493 1494 1490 1489 1490 1494 1498 1500 1501 1501 1501 1500 1500 1500 1500 1499 1499 1498 1498 1498 1498 1497 1497 1497 1497 1497 1497 1496 1496 1495 1495 1494 1493 1492
1519 1515 1509 1505 1498 1496 1496 1494 1493 1493 1492 1492 1491 1491 1494 1497 1499 1500 1501 1501 1500 1500 1500 1500 1500 1499 1498 1498 1497 1497 1496 1496 1496 1496 1496 1496 1495 1495 1494 1494 1493 1493 1492 1491
1517 1516 1512 1504 1496 1496 1497 1494 1493 1494 1493 1493 1494 1495 1496 1498 1499 1500 1501 1501 1500 1500 1499 1499 1499 1498 1498 1497 1496 1496 1495 1495 1494 1494 1494 1494 1493 1493 1493 1493 1492 1491 1491 1490
1520 1516 1511 1504 1502 1507 1497 1494 1494 1495 1495 1495 1496 1497 1499 1500 1500 1500 1500 1500 1500 1500 1499 1499 1498 1497 1496 1495 1495 1494 1494 1493 1493 1493 1493 1492 1492 1492 1492 1492 1491 1490 1490 1489
1518 1517 1511 1506 1503 1498 1494 1494 1496 1496 1496 1497 1498 1499 1500 1500 1498 1497 1499 1500 1500 1499 1498 1497 1497 1496 1495 1494 1493 1492 1492 1492 1492 1492 1492 1491 1491 1490 1490 1490 1489 1489 1488 1488
1515 1515 1512 1505 1508 1506 1499 1497 1497 1497 1496 1500 1500 1500 1501 1500 1495 1495 1498 1498 1498 1497 1497 1495 1494 1494 1493 1492 1492 1491 1491 1490 1490 1490 1490 1490 1489 1489 1489 1488 1488 1488 1487 1487
1512 1511 1510 1507 1506 1499 1500 1500 1498 1500 1502 1503 1502 1501 1501 1500 1500 1499 1498 1497 1497 1495 1494 1493 1493 1492 1491 1490 1490 1490 1489 1489 1489 1489 1489 1488 1487 1488 1488 1487 1487 1486 1486 1486
1512 1509 1507 1506 1506 1505 1504 1502 1503 1505 1504 1503 1502 1502 1501 1500 1499 1497 1496 1495 1494 1493 1492 1492 1491 1490 1489 1488 1488 1488 1487 1487 1487 1487 1487 1487 1486 1487 1487 1486 1486 1485 1485 1485
1512 1512 1509 1509 1508 1506 1507 1507 1507 1506 1504 1503 1502 1501 1500 1498 1497 1495 1494 1493 1492 1491 1490 1490 1489 1488 1487 1486 1486 1486 1486 1485 1486 1486 1486 1486 1485 1485 1485 1485 1485 1485 1484 1484
1511 1513 1511 1509 1505 1506 1507 1506 1506 1505 1504 1502 1501 1499 1498 1496 1495 1493 1492 1491 1490 1489 1488 1487 1487 1486 1485 1485 1484 1484 1484 1484 1484 1484 1484 1484 1484 1484 1484 1484 1484 1484 1483 1483
1512 1511 1509 1507 1506 1506 1504 1505 1505 1503 1502 1500 1498 1497 1496 1494 1492 1491 1490 1489 1488 1487 1486 1486 1485 1484 1484 1483 1483 1482 1482 1482 1482 1482 1483 1483 1483 1483 1483 1483 1482 1482 1481 1481
1510 1510 1508 1505 1506 1506 1504 1504 1503 1501 1499 1498 1496 1494 1493 1492 1490 1489 1488 1487 1486 1485 1484 1484 1483 1483 1482 1482 1481 1481 1480 1480 1481 1481 1482 1482 1482 1482 1482 1482 1481 1480 1480 1479